Location: S�deilles
(46.7500°N, 6.9329°E)
Time: 17:29:16
(UTC+00:00)

USA 234 - Pass Details

Date: 08 March 2021
Orbit: 1102 x 1105 km, 123.0° (Epoch: 18 April)

Event Time Altitude Azimuth Distance (km) Brightness Sun altitude
Exits shadow 19:33:13 35° 80° (E) 1,705 3.8 -22.0°
Maximum altitude 19:35:44 53° 135° (SE) 1,339 3.3 -22.4°
Drops below altitude 10° 19:42:05 10° 211° (SSW) 2,954 5.6 -23.4°
Sets 19:44:38 0° 216° (SW) 3,909 6.4 -23.8°
